Probability
71 74 74 74 65 68 68 68 68 45 39 29 23 26 35 35 29 19 26 55 48 52 48 39 35 35 39 42 42 39 48 42 45 48 39 35 32 39 39 39 32 39 39
74 81 77 71 68 65 68 74 58 52 45 42 32 39 48 48 55 55 42 45 55 48 45 45 42 39 35 39 39 45 39 42 48 48 42 42 42 42 35 32 35 32 35
74 71 65 71 68 65 65 74 65 61 55 45 55 52 55 55 45 58 45 48 39 39 39 42 39 42 35 39 42 45 39 35 35 39 39 39 42 32 32 29 29 23 23
74 68 68 71 74 71 74 74 65 58 65 68 68 65 65 68 52 48 39 35 35 29 29 35 35 35 42 39 42 45 42 39 32 35 32 32 29 26 19 23 26 26 19
71 74 71 74 71 77 77 74 81 74 68 71 61 65 65 55 58 26 32 32 39 39 29 23 35 35 32 35 39 42 39 35 29 29 29 23 29 23 23 16 16 23 23
74 81 71 77 77 74 74 77 77 77 71 61 42 42 52 45 52 45 39 32 29 29 26 26 26 16 16 16 19 26 32 32 29 23 23 23 23 23 23 19 10 10 16
74 71 71 77 81 77 81 77 81 65 71 68 55 52 52 45 48 45 42 32 32 26 19 26 23 26 16 16 13 16 19 23 26 26 29 32 26 26 26 19 13 6 6
77 58 84 77 74 84 68 68 74 65 58 58 61 55 52 48 42 23 39 32 23 26 23 16 26 13 13 10 3 6 13 19 23 29 26 13 19 16 16 16 13 6 6
74 71 74 74 77 74 77 68 74 65 65 65 65 58 45 42 39 39 29 32 26 23 16 16 13 16 16 13 6 6 13 13 10 10 16 13 13 13 10 10 3 3 3
68 68 71 74 84 71 81 68 68 68 65 61 52 52 48 42 45 23 35 26 19 19 16 13 10 6 16 13 10 6 0 3 10 10 16 13 10 10 3 3 6 3 10
65 65 74 77 77 74 71 68 71 68 68 55 58 58 48 52 42 32 29 23 19 16 19 23 13 10 13 6 10 6 3 0 0 6 10 13 13 16 6 6 10 6 6
74 58 65 71 74 71 71 71 65 65 65 58 61 58 52 42 26 29 32 32 29 26 23 19 19 19 13 10 3 3 6 0 0 0 3 6 16 13 10 6 10 13 10
68 68 65 71 71 68 71 68 68 65 61 58 58 58 52 52 35 42 42 32 32 29 26 26 23 23 13 13 10 3 3 3 0 0 0 0 10 10 10 6 6 10 13
65 65 71 71 68 65 68 68 71 71 68 61 58 52 55 52 42 42 42 35 32 29 29 19 19 16 13 13 10 6 6 6 0 0 0 0 0 0 3 6 3 3 6
65 65 68 68 71 65 68 71 68 68 71 68 65 55 58 48 45 48 32 42 39 29 32 26 19 19 16 16 10 10 10 10 0 0 0 0 0 0 0 0 0 0 0
68 61 68 74 68 65 68 68 65 65 61 58 58 55 55 52 48 55 48 39 42 42 35 29 29 16 16 6 10 6 6 6 0 0 0 0 0 0 0 0 0 0 0
65 68 71 71 65 61 61 65 68 61 58 61 58 45 45 45 48 48 48 48 39 35 32 35 29 26 16 13 10 10 10 6 6 0 0 0 0 0 0 0 0 0 0
68 68 71 68 68 65 61 61 58 58 61 58 55 48 42 45 55 55 52 52 52 52 42 32 26 23 16 13 10 13 6 6 6 3 0 0 0 0 0 0 0 0 0
65 68 71 65 65 61 65 61 65 65 61 61 58 52 48 48 58 55 58 55 52 29 45 35 39 32 13 6 6 6 6 10 6 3 0 0 0 0 0 0 0 0 0
68 65 68 71 68 68 68 61 58 65 65 61 61 55 55 48 48 55 52 52 52 48 48 42 32 29 23 10 6 10 6 10 6 6 3 0 0 0 0 0 0 0 0
58 61 68 68 68 68 58 55 55 52 61 55 52 52 48 39 35 29 26 35 35 45 42 35 29 26 23 13 6 10 3 10 6 6 6 0 0 0 0 0 0 0 0
65 61 65 65 58 52 42 35 35 48 52 52 52 52 45 32 16 10 13 13 13 23 29 32 32 23 23 23 13 6 3 6 6 13 13 0 0 0 0 0 0 0 0
61 61 58 55 58 42 35 26 23 35 42 45 45 45 39 26 19 16 10 10 10 3 6 13 16 23 23 26 19 13 10 6 3 10 10 6 6 3 0 0 0 0 0
61 61 58 55 55 45 26 13 19 29 35 42 45 52 48 42 32 32 29 23 16 10 3 3 10 16 16 19 23 13 19 6 10 10 10 6 3 3 0 0 0 0 0
61 58 58 58 55 45 23 10 10 26 35 42 39 39 39 39 29 13 26 35 35 32 10 0 6 6 6 6 6 6 6 6 10 6 6 6 6 3 6 3 0 0 0
55 52 52 55 55 48 23 13 6 23 35 39 39 42 26 23 23 10 19 29 29 32 23 10 0 0 6 3 0 3 6 0 0 0 6 6 6 6 6 6 0 3 0
Height
5889 5889 5890 5890 5890 5890 5890 5890 5889 5888 5888 5887 5886 5886 5886 5887 5887 5887 5888 5887 5887 5886 5886 5886 5885 5885 5884 5883 5882 5881 5880 5880 5879 5879 5878 5878 5878 5878 5878 5878 5879 5879 5880
5890 5890 5891 5891 5891 5891 5890 5890 5890 5889 5889 5888 5888 5888 5887 5887 5888 5888 5887 5887 5886 5886 5885 5885 5884 5883 5882 5881 5880 5879 5878 5877 5877 5876 5876 5876 5875 5875 5876 5875 5876 5876 5877
5891 5892 5891 5891 5891 5891 5891 5890 5890 5890 5889 5889 5888 5888 5888 5888 5888 5888 5887 5887 5886 5885 5884 5884 5883 5882 5881 5880 5878 5877 5876 5875 5874 5874 5873 5873 5873 5873 5873 5873 5873 5874 5874
5892 5892 5892 5892 5892 5892 5892 5891 5890 5890 5890 5889 5889 5889 5888 5888 5888 5888 5887 5886 5885 5885 5884 5883 5882 5880 5879 5878 5877 5876 5874 5873 5872 5871 5871 5870 5870 5870 5870 5870 5870 5870 5870
5893 5894 5894 5893 5893 5893 5892 5892 5891 5891 5890 5890 5889 5889 5889 5888 5888 5887 5887 5886 5885 5884 5883 5882 5881 5879 5878 5876 5875 5874 5872 5871 5869 5869 5868 5868 5868 5867 5867 5867 5867 5867 5867
5894 5895 5894 5894 5894 5894 5893 5893 5893 5892 5891 5890 5890 5890 5889 5889 5888 5887 5887 5885 5884 5883 5882 5881 5879 5878 5876 5875 5873 5871 5870 5868 5867 5866 5865 5865 5865 5865 5864 5864 5864 5864 5864
5895 5895 5895 5895 5895 5895 5894 5894 5894 5893 5892 5891 5891 5890 5889 5889 5888 5887 5886 5885 5884 5882 5881 5880 5878 5876 5875 5873 5871 5870 5868 5866 5865 5864 5863 5863 5863 5862 5862 5861 5861 5860 5861
5896 5896 5896 5896 5896 5896 5895 5895 5894 5894 5893 5892 5891 5891 5890 5889 5888 5887 5886 5884 5883 5882 5880 5878 5877 5875 5873 5872 5870 5868 5866 5865 5863 5862 5862 5861 5860 5860 5859 5858 5858 5857 5857
5897 5897 5897 5897 5897 5896 5896 5895 5895 5894 5893 5892 5891 5891 5890 5889 5888 5887 5885 5884 5882 5881 5879 5877 5876 5874 5872 5870 5868 5867 5865 5863 5862 5861 5859 5858 5858 5857 5856 5855 5855 5854 5854
5898 5898 5897 5897 5897 5897 5896 5896 5895 5894 5893 5892 5891 5890 5889 5888 5887 5886 5885 5883 5882 5880 5878 5876 5874 5872 5871 5869 5867 5865 5864 5862 5860 5859 5857 5856 5855 5854 5854 5853 5852 5851 5851
5899 5898 5898 5898 5898 5897 5897 5896 5896 5895 5894 5892 5891 5890 5889 5888 5887 5886 5884 5883 5881 5879 5877 5875 5873 5871 5869 5867 5865 5863 5862 5860 5858 5857 5855 5854 5853 5852 5851 5850 5849 5848 5847
5900 5899 5899 5899 5898 5898 5897 5897 5896 5895 5894 5892 5891 5890 5889 5887 5886 5885 5883 5881 5880 5878 5876 5874 5871 5869 5867 5865 5863 5861 5859 5857 5856 5854 5853 5852 5850 5849 5848 5847 5846 5845 5844
5900 5899 5899 5899 5898 5898 5897 5896 5896 5895 5893 5892 5891 5889 5888 5887 5885 5884 5882 5880 5878 5877 5875 5872 5870 5867 5865 5863 5861 5859 5857 5855 5853 5852 5850 5849 5848 5846 5845 5844 5843 5841 5840
5900 5900 5899 5899 5898 5898 5897 5896 5895 5894 5893 5892 5890 5889 5887 5886 5884 5883 5881 5879 5877 5875 5873 5870 5867 5865 5863 5861 5859 5857 5855 5853 5851 5849 5848 5846 5844 5843 5842 5840 5839 5838 5836
5900 5899 5899 5898 5898 5897 5897 5896 5895 5894 5892 5891 5890 5888 5887 5885 5883 5881 5879 5877 5876 5873 5871 5868 5865 5863 5861 5858 5856 5854 5852 5850 5848 5846 5845 5843 5841 5839 5838 5836 5835 5834 5833
5899 5899 5898 5898 5897 5896 5896 5895 5894 5892 5891 5890 5888 5887 5885 5884 5882 5880 5878 5875 5873 5871 5868 5866 5863 5860 5858 5856 5854 5852 5849 5847 5845 5843 5841 5839 5837 5835 5834 5832 5831 5829 5828
5898 5898 5897 5897 5896 5895 5894 5893 5892 5891 5890 5888 5887 5885 5883 5882 5880 5878 5876 5873 5871 5868 5865 5863 5861 5858 5855 5853 5851 5848 5846 5843 5841 5839 5837 5835 5833 5831 5829 5828 5826 5825 5823
5897 5896 5896 5895 5894 5893 5892 5891 5890 5889 5888 5886 5885 5883 5881 5879 5877 5875 5873 5871 5868 5865 5863 5860 5857 5855 5852 5849 5847 5844 5842 5840 5837 5834 5832 5830 5828 5826 5825 5823 5821 5820 5818
5895 5894 5894 5893 5892 5891 5890 5889 5887 5886 5885 5883 5882 5880 5878 5876 5874 5872 5870 5867 5865 5862 5859 5857 5854 5851 5848 5845 5843 5840 5837 5835 5832 5830 5827 5825 5823 5821 5819 5817 5815 5814 5812
5893 5892 5891 5890 5889 5888 5887 5886 5885 5883 5882 5880 5878 5877 5875 5873 5871 5868 5866 5863 5861 5858 5855 5852 5850 5847 5844 5841 5838 5835 5832 5829 5827 5825 5822 5820 5817 5815 5813 5811 5809 5807 5806
5890 5889 5888 5887 5886 5885 5884 5883 5881 5880 5878 5877 5875 5873 5871 5869 5866 5864 5862 5859 5856 5853 5850 5848 5845 5842 5839 5835 5833 5830 5827 5824 5821 5819 5816 5814 5811 5809 5807 5805 5803 5801 5799
5886 5886 5885 5884 5883 5882 5881 5879 5878 5876 5874 5872 5871 5868 5866 5864 5861 5859 5857 5854 5851 5848 5845 5842 5839 5836 5833 5830 5826 5824 5821 5818 5815 5813 5810 5808 5805 5803 5801 5798 5796 5794 5792
5883 5882 5881 5880 5879 5878 5876 5875 5873 5871 5869 5867 5865 5863 5861 5859 5856 5854 5851 5848 5845 5842 5839 5836 5833 5829 5826 5823 5820 5817 5814 5812 5809 5806 5803 5801 5798 5796 5794 5792 5790 5787 5785
5878 5877 5876 5875 5874 5873 5871 5870 5868 5866 5864 5862 5860 5858 5855 5852 5850 5847 5845 5842 5839 5836 5832 5829 5826 5823 5820 5816 5813 5811 5808 5805 5802 5799 5796 5793 5791 5789 5787 5784 5782 5780 5777
5873 5872 5871 5869 5868 5867 5865 5864 5862 5860 5858 5856 5854 5852 5849 5846 5844 5840 5837 5835 5832 5829 5825 5822 5819 5815 5813 5809 5806 5803 5801 5798 5795 5792 5789 5786 5784 5781 5779 5776 5774 5772 5769
5868 5866 5865 5864 5862 5861 5859 5857 5855 5853 5851 5849 5847 5845 5842 5839 5836 5833 5830 5827 5824 5821 5817 5814 5811 5808 5805 5802 5799 5796 5793 5790 5787 5784 5781 5778 5775 5773 5771 5769 5766 5763 5761
Wind_Speed
2 2 2 2 2 2 3 3 3 3 3 4 4 3 2 2 3 3 4 5 6 6 7 8 9 9 9 10 11 10 11 11 12 11 11 12 12 12 12 13 13 13 13
2 2 2 2 3 3 3 3 4 3 3 4 3 2 3 3 3 3 4 5 6 6 7 8 9 9 10 11 11 11 11 12 12 12 12 12 12 11 12 12 13 13 13
3 3 3 4 4 4 4 4 4 4 4 4 4 4 4 3 4 4 5 5 6 7 7 8 9 10 10 11 10 11 12 12 12 11 11 10 10 10 11 12 12 13 13
4 4 4 4 4 5 5 5 4 4 4 4 4 4 4 4 4 4 5 6 7 8 8 9 10 10 10 11 11 11 12 11 11 11 11 10 10 11 10 11 13 13 14
5 5 5 4 5 5 5 6 6 6 5 5 4 4 5 5 5 5 6 7 7 8 9 10 10 10 11 11 11 11 12 11 11 10 11 11 11 11 11 11 12 13 13
4 5 5 5 5 5 6 6 6 6 6 6 6 5 5 6 6 6 7 8 8 9 9 10 10 10 11 11 11 11 11 10 10 11 11 11 11 11 11 12 13 12 13
4 5 5 5 5 5 6 6 6 6 6 6 6 6 6 6 6 8 8 9 9 9 10 10 10 11 11 11 12 12 11 10 9 10 10 11 11 10 10 11 11 12 13
5 4 5 5 5 5 6 6 6 6 7 7 7 7 7 7 8 8 9 10 10 10 9 10 11 12 12 11 12 12 12 11 10 11 11 11 11 11 11 11 11 12 12
4 5 5 5 5 5 6 6 7 7 7 8 8 7 8 8 7 8 8 9 10 10 10 11 12 12 12 12 12 12 12 12 12 11 11 11 11 11 11 11 12 12 13
4 4 5 5 5 5 6 6 7 7 8 8 8 8 8 9 9 9 10 10 11 11 11 12 13 13 12 13 13 13 13 12 12 11 11 11 11 11 11 11 11 12 12
4 4 4 4 5 6 6 7 7 8 8 8 8 8 8 9 10 11 11 11 12 12 13 13 14 14 13 13 14 14 14 14 13 12 11 11 11 11 11 12 12 12 13
4 4 4 4 5 5 6 7 7 8 9 9 9 8 9 9 10 11 12 13 13 14 14 15 15 14 15 15 15 15 15 14 13 12 12 11 11 12 12 12 12 13 13
4 4 3 4 5 5 6 7 8 8 9 9 9 9 9 10 11 12 13 14 15 15 15 16 16 15 15 15 15 14 14 14 13 13 13 12 13 13 13 13 13 14 14
5 5 4 4 5 6 6 7 8 9 9 9 9 10 10 11 12 13 13 15 16 16 16 16 16 16 16 15 15 15 14 14 14 13 13 14 14 13 13 14 14 14 15
6 6 5 5 6 6 7 8 9 9 10 10 10 11 11 11 12 13 15 16 16 17 17 16 16 16 16 16 16 16 16 16 15 15 15 15 15 15 15 15 15 15 15
7 6 6 7 7 8 8 9 9 10 11 12 12 12 12 13 14 15 16 16 17 18 18 17 17 17 17 17 17 17 17 17 17 16 17 16 16 15 16 16 16 16 16
8 8 8 8 9 10 10 10 10 11 12 13 13 14 14 14 15 16 16 17 18 18 18 18 18 18 18 18 18 18 19 18 18 17 17 17 17 17 17 17 17 17 17
9 10 10 10 10 11 11 11 12 12 13 14 14 15 15 16 16 17 17 18 19 19 19 19 20 20 20 20 20 20 20 19 19 19 19 19 19 19 18 18 18 18 18
11 11 11 11 12 12 12 13 13 14 15 15 15 16 16 17 17 18 19 20 20 21 21 21 21 22 22 22 21 21 21 21 21 20 20 21 21 20 20 20 20 20 20
12 13 13 13 13 14 14 14 15 16 16 16 17 17 18 18 19 20 21 21 22 23 23 23 23 24 23 23 23 22 22 22 22 21 21 21 21 21 21 22 22 22 22
14 14 15 15 15 15 15 16 16 17 17 18 18 19 19 20 21 22 23 24 24 24 25 25 25 24 24 24 24 24 23 23 23 23 22 22 22 21 22 23 23 23 23
16 16 17 17 17 17 17 17 17 18 19 19 20 20 21 22 23 23 24 25 26 26 26 27 26 26 26 26 25 25 25 24 25 24 24 23 23 22 22 23 23 24 24
17 17 18 18 18 18 19 20 20 20 21 21 22 22 23 24 25 25 26 27 27 28 28 28 27 27 28 28 28 27 26 26 26 26 26 24 24 23 24 24 24 24 25
18 19 19 20 20 21 21 22 22 23 23 24 24 25 26 26 27 27 28 29 29 29 30 30 29 29 29 30 29 29 28 28 28 28 28 26 25 25 26 26 25 25 25
20 20 21 22 22 23 23 24 25 25 25 26 26 27 28 28 29 29 30 30 31 31 31 32 31 31 31 31 30 30 30 29 29 29 28 28 27 27 27 27 26 26 26
22 23 23 24 25 25 25 26 26 27 27 28 28 29 30 30 30 31 32 32 32 32 32 32 32 32 31 31 31 31 30 30 30 29 29 29 28 28 28 28 28 27 26
Wind_Direction
88 80 75 64 31 10 11 6 357 20 33 43 47 38 36 31 12 340 331 323 321 321 316 310 308 306 307 307 305 305 297 292 291 288 282 275 269 265 264 262 261 259 255
83 62 54 53 31 30 28 22 20 31 39 44 51 37 35 29 16 353 337 331 343 336 324 316 310 306 308 307 305 303 299 296 292 286 281 279 272 268 269 263 260 260 257
65 60 58 52 46 43 36 31 27 35 49 48 42 38 30 18 14 5 356 349 344 341 338 334 327 319 315 314 310 307 300 296 294 291 286 282 282 276 273 268 264 261 260
61 62 59 54 47 41 36 30 28 26 30 39 34 30 26 14 3 352 346 344 342 338 335 336 332 326 319 318 316 311 307 304 301 293 287 284 285 283 280 274 266 260 261
64 62 58 57 50 39 35 35 29 23 22 26 29 26 21 10 359 354 350 349 343 337 335 334 331 328 328 326 321 313 307 304 302 295 288 286 285 284 285 283 279 263 260
53 55 52 50 39 38 35 29 26 26 26 23 18 12 11 7 2 355 350 346 342 338 335 335 335 333 331 328 323 319 314 311 303 292 286 285 287 286 285 288 284 276 266
45 50 49 47 37 34 30 28 28 24 23 23 15 9 8 4 356 351 348 346 343 340 337 338 338 336 332 329 326 324 321 321 317 306 295 294 293 290 290 295 287 282 277
41 50 51 48 36 30 27 24 23 20 18 16 13 11 11 4 1 359 354 349 345 343 340 339 336 335 334 332 331 330 328 327 323 315 305 303 301 300 299 298 294 288 283
39 48 51 46 38 25 23 22 22 19 14 12 7 4 5 6 359 356 355 352 347 344 340 339 338 333 333 334 334 334 331 327 323 320 314 309 306 304 302 298 296 292 286
38 42 49 46 38 32 29 24 20 17 13 11 11 6 2 357 356 355 352 349 347 344 339 337 338 334 334 334 334 335 334 331 327 325 320 315 315 313 309 304 299 296 290
28 28 36 33 29 22 19 19 16 12 9 8 7 3 1 357 352 350 350 347 345 344 342 340 338 336 334 331 330 330 330 329 326 322 319 317 315 314 311 306 299 294 289
18 17 24 21 14 9 7 10 8 5 4 3 4 2 357 353 348 347 346 343 341 339 337 337 336 332 331 330 328 327 325 326 325 322 319 316 314 313 312 311 305 297 291
3 5 10 8 2 358 355 357 357 357 359 2 1 357 352 348 343 340 338 338 337 335 333 332 332 331 329 328 328 328 327 326 323 321 319 317 313 311 308 306 304 301 295
347 341 343 347 345 347 347 348 349 346 349 352 349 346 344 344 342 341 339 337 336 336 335 332 330 331 329 329 329 328 326 324 323 320 317 315 311 307 304 302 299 300 296
337 332 332 335 333 336 340 342 337 336 337 339 340 340 338 337 338 338 337 335 336 338 338 335 332 330 330 330 327 326 323 320 317 315 314 312 309 305 302 301 300 299 296
327 324 324 328 325 324 325 328 330 330 331 332 332 331 331 332 333 333 332 332 332 334 336 336 335 332 332 330 327 324 321 319 315 313 313 312 309 305 302 299 298 298 295
316 314 314 318 320 318 316 320 322 323 323 325 325 325 324 325 328 329 330 332 332 333 333 332 332 330 329 329 327 325 322 319 317 313 311 310 307 304 302 300 299 297 296
308 307 306 310 313 316 314 312 314 317 320 320 321 321 321 321 323 326 328 329 329 330 329 328 327 326 325 325 324 323 321 318 315 313 310 307 305 303 301 299 298 297 295
306 305 305 306 309 311 312 309 310 313 315 317 317 319 319 319 319 322 324 324 324 324 324 322 322 322 321 320 319 319 318 316 315 312 310 308 305 303 301 299 299 297 295
306 305 303 304 306 308 309 309 308 310 312 313 314 315 316 316 316 316 319 321 320 319 319 318 318 318 318 316 315 315 314 313 312 311 311 309 305 302 300 299 298 295 293
302 301 301 302 303 304 305 306 307 309 310 310 311 312 314 314 314 314 315 317 317 317 316 314 314 314 315 314 313 310 310 309 309 309 310 308 306 303 301 299 297 295 293
299 301 301 301 301 301 301 301 303 306 308 308 310 310 310 311 311 312 312 314 314 314 313 312 310 310 310 310 310 309 307 307 307 307 307 306 304 304 302 301 299 297 294
297 299 299 298 298 298 299 299 299 301 304 305 306 307 308 309 309 309 309 309 310 311 311 311 309 308 308 308 309 308 307 307 307 307 306 305 304 302 303 301 298 296 295
294 294 296 298 296 296 296 296 296 298 302 303 303 304 305 306 307 306 306 306 307 308 307 306 307 307 307 306 307 307 307 305 305 305 304 303 303 303 303 302 300 297 296
294 294 293 294 294 293 292 294 294 296 299 301 302 303 304 305 305 304 304 304 304 305 304 303 304 305 305 305 305 304 304 304 304 304 302 301 301 301 302 301 300 299 298
290 292 293 294 293 292 292 292 293 295 297 298 300 301 302 303 303 302 302 302 302 303 303 302 302 303 303 302 303 304 303 302 302 301 300 299 300 300 300 300 299 299 298